Time,TemperatureF,DewpointF,PressureIn,WindDirection,WindDirectionDegrees,WindSpeedMPH,WindSpeedGustMPH,Humidity,HourlyPrecipIn,Conditions,Clouds,dailyrainin,SoftwareType,DateUTC
2013-12-27 00:12:00,12.0,-99.9,30.20,WSW,240,3.0,6.0,-999,-99.99,,,-99.99,,2013-12-27 06:12:00,
2013-12-27 00:22:00,12.0,-99.9,30.20,WSW,240,3.0,6.0,-999,-99.99,,,-99.99,,2013-12-27 06:22:00,
2013-12-27 00:32:00,12.0,-99.9,30.20,WSW,240,3.0,6.0,-999,-99.99,,,-99.99,,2013-12-27 06:32:00,
2013-12-27 00:52:00,13.0,-99.9,30.20,WSW,250,5.0,6.0,-999,-99.99,,,-99.99,,2013-12-27 06:52:00,
2013-12-27 01:12:00,13.0,-99.9,30.20,WSW,240,5.0,6.0,-999,-99.99,,,-99.99,,2013-12-27 07:12:00,
2013-12-27 01:22:00,13.0,-99.9,30.20,WSW,240,5.0,6.0,-999,-99.99,,,-99.99,,2013-12-27 07:22:00,
2013-12-27 01:32:00,13.0,-99.9,30.20,WSW,240,5.0,6.0,-999,-99.99,,,-99.99,,2013-12-27 07:32:00,
2013-12-27 01:40:00,13.0,-99.9,30.21,West,270,3.0,6.0,-999,-99.99,,,-99.99,,2013-12-27 07:40:00,
2013-12-27 01:52:00,13.0,-99.9,30.20,West,260,3.0,6.0,-999,-99.99,,,-99.99,,2013-12-27 07:52:00,
2013-12-27 02:11:00,13.0,-99.9,30.21,West,270,3.0,6.0,-999,-99.99,,,-99.99,,2013-12-27 08:11:00,
2013-12-27 02:22:00,13.0,-99.9,30.21,West,270,3.0,6.0,-999,-99.99,,,-99.99,,2013-12-27 08:22:00,
2013-12-27 02:32:00,13.0,-99.9,30.21,West,270,3.0,6.0,-999,-99.99,,,-99.99,,2013-12-27 08:32:00,
2013-12-27 02:40:00,12.0,-99.9,30.21,West,260,5.0,6.0,-999,-99.99,,,-99.99,,2013-12-27 08:40:00,
2013-12-27 02:52:00,12.0,-99.9,30.21,West,270,3.0,6.0,-999,-99.99,,,-99.99,,2013-12-27 08:52:00,
2013-12-27 03:11:00,12.0,-99.9,30.21,West,260,5.0,6.0,-999,-99.99,,,-99.99,,2013-12-27 09:11:00,
2013-12-27 03:22:00,12.0,-99.9,30.21,West,260,5.0,6.0,-999,-99.99,,,-99.99,,2013-12-27 09:22:00,
2013-12-27 03:33:00,12.0,-99.9,30.21,West,260,5.0,6.0,-999,-99.99,,,-99.99,,2013-12-27 09:33:00,
2013-12-27 03:54:00,12.0,-99.9,30.21,West,270,3.0,7.0,-999,-99.99,,,-99.99,,2013-12-27 09:54:00,
2013-12-27 04:12:00,14.0,-99.9,30.21,West,270,5.0,6.0,-999,-99.99,,,-99.99,,2013-12-27 10:12:00,
2013-12-27 04:23:00,14.0,-99.9,30.21,West,270,5.0,6.0,-999,-99.99,,,-99.99,,2013-12-27 10:23:00,
2013-12-27 04:33:00,14.0,-99.9,30.21,West,270,5.0,6.0,-999,-99.99,,,-99.99,,2013-12-27 10:33:00,
2013-12-27 04:40:00,17.0,-99.9,30.21,WNW,290,6.0,8.0,-999,-99.99,,,-99.99,,2013-12-27 10:40:00,
2013-12-27 04:53:00,17.0,-99.9,30.21,WNW,290,8.0,13.0,-999,-99.99,,,-99.99,,2013-12-27 10:53:00,
2013-12-27 05:12:00,17.0,-99.9,30.21,WNW,290,6.0,8.0,-999,-99.99,,,-99.99,,2013-12-27 11:12:00,
2013-12-27 05:22:00,17.0,-99.9,30.21,WNW,290,6.0,8.0,-999,-99.99,,,-99.99,,2013-12-27 11:22:00,
2013-12-27 05:32:00,17.0,-99.9,30.21,WNW,290,6.0,8.0,-999,-99.99,,,-99.99,,2013-12-27 11:32:00,
2013-12-27 05:40:00,14.0,-99.9,30.21,SSW,210,2.0,5.0,-999,-99.99,,,-99.99,,2013-12-27 11:40:00,
2013-12-27 05:53:00,16.0,-99.9,30.20,SW,230,1.0,10.0,-999,-99.99,,,-99.99,,2013-12-27 11:53:00,
2013-12-27 06:12:00,14.0,-99.9,30.21,SSW,210,2.0,5.0,-999,-99.99,,,-99.99,,2013-12-27 12:12:00,
2013-12-27 06:22:00,14.0,-99.9,30.21,SSW,210,2.0,5.0,-999,-99.99,,,-99.99,,2013-12-27 12:22:00,
2013-12-27 06:32:00,14.0,-99.9,30.21,SSW,210,2.0,5.0,-999,-99.99,,,-99.99,,2013-12-27 12:32:00,
2013-12-27 06:53:00,13.0,-99.9,30.19,North,0,0.0,5.0,-999,-99.99,,,-99.99,,2013-12-27 12:53:00,
2013-12-27 07:12:00,12.0,-99.9,30.18,South,180,3.0,5.0,-999,-99.99,,,-99.99,,2013-12-27 13:12:00,
2013-12-27 07:22:00,12.0,-99.9,30.18,South,180,3.0,5.0,-999,-99.99,,,-99.99,,2013-12-27 13:22:00,
2013-12-27 07:32:00,12.0,-99.9,30.18,South,180,3.0,5.0,-999,-99.99,,,-99.99,,2013-12-27 13:32:00,
2013-12-27 07:53:00,13.0,-99.9,30.19,North,0,0.0,5.0,-999,-99.99,,,-99.99,,2013-12-27 13:53:00,
2013-12-27 08:12:00,14.0,-99.9,30.20,North,0,0.0,1.0,-999,-99.99,,,-99.99,,2013-12-27 14:12:00,
2013-12-27 08:22:00,14.0,-99.9,30.20,North,0,0.0,1.0,-999,-99.99,,,-99.99,,2013-12-27 14:22:00,
2013-12-27 08:32:00,14.0,-99.9,30.20,North,0,0.0,1.0,-999,-99.99,,,-99.99,,2013-12-27 14:32:00,
2013-12-27 08:40:00,17.0,-99.9,30.21,North,0,0.0,3.0,-999,-99.99,,,-99.99,,2013-12-27 14:40:00,
2013-12-27 08:52:00,16.0,-99.9,30.21,North,0,0.0,5.0,-999,-99.99,,,-99.99,,2013-12-27 14:52:00,
2013-12-27 09:12:00,17.0,-99.9,30.21,North,0,0.0,3.0,-999,-99.99,,,-99.99,,2013-12-27 15:12:00,
2013-12-27 09:22:00,17.0,-99.9,30.21,North,0,0.0,3.0,-999,-99.99,,,-99.99,,2013-12-27 15:22:00,
2013-12-27 09:33:00,17.0,-99.9,30.21,North,0,0.0,3.0,-999,-99.99,,,-99.99,,2013-12-27 15:33:00,
2013-12-27 09:40:00,20.0,-99.9,30.20,SW,220,3.0,8.0,-999,-99.99,,,-99.99,,2013-12-27 15:40:00,
2013-12-27 09:54:00,19.0,-99.9,30.21,West,260,1.0,5.0,-999,-99.99,,,-99.99,,2013-12-27 15:54:00,
2013-12-27 10:13:00,20.0,-99.9,30.20,SW,220,3.0,8.0,-999,-99.99,,,-99.99,,2013-12-27 16:13:00,
2013-12-27 10:23:00,20.0,-99.9,30.20,SW,220,3.0,8.0,-999,-99.99,,,-99.99,,2013-12-27 16:23:00,
2013-12-27 10:33:00,20.0,-99.9,30.20,SW,220,3.0,8.0,-999,-99.99,,,-99.99,,2013-12-27 16:33:00,
2013-12-27 10:40:00,22.0,-99.9,30.13,South,170,7.0,13.0,-999,-99.99,,,-99.99,,2013-12-27 16:40:00,
2013-12-27 11:12:00,22.0,-99.9,30.13,South,170,7.0,13.0,-999,-99.99,,,-99.99,,2013-12-27 17:12:00,
2013-12-27 11:22:00,22.0,-99.9,30.13,South,170,7.0,13.0,-999,-99.99,,,-99.99,,2013-12-27 17:22:00,
2013-12-27 11:33:00,22.0,-99.9,30.13,South,170,7.0,13.0,-999,-99.99,,,-99.99,,2013-12-27 17:33:00,
2013-12-27 11:40:00,27.0,-99.9,30.10,South,190,8.0,16.0,-999,-99.99,,,-99.99,,2013-12-27 17:40:00,
2013-12-27 12:12:00,27.0,-99.9,30.10,South,190,8.0,16.0,-999,-99.99,,,-99.99,,2013-12-27 18:12:00,
2013-12-27 12:22:00,27.0,-99.9,30.10,South,190,8.0,16.0,-999,-99.99,,,-99.99,,2013-12-27 18:22:00,
2013-12-27 12:32:00,27.0,-99.9,30.10,South,190,8.0,16.0,-999,-99.99,,,-99.99,,2013-12-27 18:32:00,
2013-12-27 12:40:00,28.0,-99.9,30.07,South,170,3.0,11.0,-999,-99.99,,,-99.99,,2013-12-27 18:40:00,
2013-12-27 13:12:00,28.0,-99.9,30.07,South,170,3.0,11.0,-999,-99.99,,,-99.99,,2013-12-27 19:12:00,
2013-12-27 13:22:00,28.0,-99.9,30.07,South,170,3.0,11.0,-999,-99.99,,,-99.99,,2013-12-27 19:22:00,
2013-12-27 13:32:00,28.0,-99.9,30.07,South,170,3.0,11.0,-999,-99.99,,,-99.99,,2013-12-27 19:32:00,
2013-12-27 14:11:00,29.0,-99.9,30.02,SSW,200,7.0,11.0,-999,-99.99,,,-99.99,,2013-12-27 20:11:00,
2013-12-27 14:22:00,29.0,-99.9,30.02,SSW,200,7.0,11.0,-999,-99.99,,,-99.99,,2013-12-27 20:22:00,
2013-12-27 14:40:00,29.0,-99.9,29.96,SSE,160,7.0,15.0,-999,-99.99,,,-99.99,,2013-12-27 20:40:00,
2013-12-27 14:42:00,29.0,-99.9,30.00,South,170,3.0,14.0,-999,-99.99,,,-99.99,,2013-12-27 20:42:00,
2013-12-27 14:52:00,29.0,-99.9,30.00,South,170,3.0,14.0,-999,-99.99,,,-99.99,,2013-12-27 20:52:00,
2013-12-27 15:11:00,29.0,-99.9,29.96,SSE,160,7.0,15.0,-999,-99.99,,,-99.99,,2013-12-27 21:11:00,
2013-12-27 15:22:00,29.0,-99.9,29.96,SSE,160,7.0,15.0,-999,-99.99,,,-99.99,,2013-12-27 21:22:00,
2013-12-27 15:33:00,29.0,-99.9,29.96,SSE,160,7.0,15.0,-999,-99.99,,,-99.99,,2013-12-27 21:33:00,
2013-12-27 15:40:00,30.0,-99.9,29.91,South,170,9.0,16.0,-999,-99.99,,,-99.99,,2013-12-27 21:40:00,
2013-12-27 16:13:00,30.0,-99.9,29.91,South,170,9.0,16.0,-999,-99.99,,,-99.99,,2013-12-27 22:13:00,
2013-12-27 16:23:00,30.0,-99.9,29.91,South,170,9.0,16.0,-999,-99.99,,,-99.99,,2013-12-27 22:23:00,
2013-12-27 16:32:00,30.0,-99.9,29.91,South,170,9.0,16.0,-999,-99.99,,,-99.99,,2013-12-27 22:32:00,
2013-12-27 16:40:00,32.0,-99.9,29.87,South,170,8.0,16.0,-999,-99.99,,,-99.99,,2013-12-27 22:40:00,
2013-12-27 17:12:00,32.0,-99.9,29.87,South,170,8.0,16.0,-999,-99.99,,,-99.99,,2013-12-27 23:12:00,
2013-12-27 17:22:00,32.0,-99.9,29.87,South,170,8.0,16.0,-999,-99.99,,,-99.99,,2013-12-27 23:22:00,
2013-12-27 17:33:00,32.0,-99.9,29.87,South,170,8.0,16.0,-999,-99.99,,,-99.99,,2013-12-27 23:33:00,
2013-12-27 17:40:00,33.0,-99.9,29.86,South,190,7.0,17.0,-999,-99.99,,,-99.99,,2013-12-27 23:40:00,
2013-12-27 18:11:00,33.0,-99.9,29.86,South,190,7.0,17.0,-999,-99.99,,,-99.99,,2013-12-28 00:11:00,
2013-12-27 18:22:00,33.0,-99.9,29.86,South,190,7.0,17.0,-999,-99.99,,,-99.99,,2013-12-28 00:22:00,
2013-12-27 18:32:00,33.0,-99.9,29.86,South,190,7.0,17.0,-999,-99.99,,,-99.99,,2013-12-28 00:32:00,
2013-12-27 18:40:00,34.0,-99.9,29.86,SW,220,7.0,16.0,-999,-99.99,,,-99.99,,2013-12-28 00:40:00,
2013-12-27 19:12:00,34.0,-99.9,29.86,SW,220,7.0,16.0,-999,-99.99,,,-99.99,,2013-12-28 01:12:00,
2013-12-27 19:22:00,34.0,-99.9,29.86,SW,220,7.0,16.0,-999,-99.99,,,-99.99,,2013-12-28 01:22:00,
2013-12-27 19:32:00,34.0,-99.9,29.86,SW,220,7.0,16.0,-999,-99.99,,,-99.99,,2013-12-28 01:32:00,
2013-12-27 19:40:00,33.0,-99.9,29.87,SW,220,7.0,18.0,-999,-99.99,,,-99.99,,2013-12-28 01:40:00,
2013-12-27 20:12:00,33.0,-99.9,29.87,SW,220,7.0,18.0,-999,-99.99,,,-99.99,,2013-12-28 02:12:00,
2013-12-27 20:22:00,33.0,-99.9,29.87,SW,220,7.0,18.0,-999,-99.99,,,-99.99,,2013-12-28 02:22:00,
2013-12-27 20:32:00,33.0,-99.9,29.87,SW,220,7.0,18.0,-999,-99.99,,,-99.99,,2013-12-28 02:32:00,
2013-12-27 20:40:00,32.0,-99.9,29.87,WSW,240,8.0,14.0,-999,-99.99,,,-99.99,,2013-12-28 02:40:00,
2013-12-27 21:12:00,32.0,-99.9,29.87,WSW,240,8.0,14.0,-999,-99.99,,,-99.99,,2013-12-28 03:12:00,
2013-12-27 21:22:00,32.0,-99.9,29.87,WSW,240,8.0,14.0,-999,-99.99,,,-99.99,,2013-12-28 03:22:00,
2013-12-27 21:33:00,32.0,-99.9,29.87,WSW,240,8.0,14.0,-999,-99.99,,,-99.99,,2013-12-28 03:33:00,
2013-12-27 21:40:00,32.0,-99.9,29.89,WSW,240,8.0,15.0,-999,-99.99,,,-99.99,,2013-12-28 03:40:00,
2013-12-27 22:13:00,32.0,-99.9,29.89,WSW,240,8.0,15.0,-999,-99.99,,,-99.99,,2013-12-28 04:13:00,
2013-12-27 22:23:00,32.0,-99.9,29.89,WSW,240,8.0,15.0,-999,-99.99,,,-99.99,,2013-12-28 04:23:00,
2013-12-27 22:33:00,32.0,-99.9,29.89,WSW,240,8.0,15.0,-999,-99.99,,,-99.99,,2013-12-28 04:33:00,
2013-12-27 22:40:00,33.0,-99.9,29.91,West,260,6.0,16.0,-999,-99.99,,,-99.99,,2013-12-28 04:40:00,
2013-12-27 23:13:00,33.0,-99.9,29.91,West,260,6.0,16.0,-999,-99.99,,,-99.99,,2013-12-28 05:13:00,
2013-12-27 23:22:00,33.0,-99.9,29.91,West,260,6.0,16.0,-999,-99.99,,,-99.99,,2013-12-28 05:22:00,
2013-12-27 23:33:00,33.0,-99.9,29.91,West,260,6.0,16.0,-999,-99.99,,,-99.99,,2013-12-28 05:33:00,
2013-12-27 23:40:00,33.0,-99.9,29.91,WSW,250,7.0,10.0,-999,-99.99,,,-99.99,,2013-12-28 05:40:00,